Location: Bastelaar
(51.0950°N, 3.8602°E)
Time: 02:07:54
(UTC+00:00)

ARIANE 6 FM1 Upper Stage - Pass Details

Date: 02 February 2026
Orbit: 522 x 609 km, 62.0° (Epoch: 13 February)

Event Time Altitude Azimuth Distance (km) Brightness Sun altitude
Rises 17:33:28 0° 262° (W) 2,693 8.4 -9.1°
Reaches altitude 10° 17:35:55 10° 274° (W) 1,791 6.6 -9.5°
Maximum altitude 17:39:24 28° 335° (NNW) 1,023 4.1 -10.0°
Drops below altitude 10° 17:42:52 10° 36° (NE) 1,773 4.8 -10.5°
Enters shadow 17:43:08 - 37° (NE) 1,863 4.9 -10.6°
